Weather History for KCKV - December, 2011

Change the Weather History Date:

Monday, December 12, 2011

  Actual Average Record
Temperature  
Mean Temperature 36 °F -  
Max Temperature 49 °F - 70 °F (1979)
Min Temperature 23 °F - -2 °F (1962)
Degree Days  
Heating Degree Days 29    
Month to date heating degree days 304  
Since 1 July heating degree days 987  
Cooling Degree Days 0    
Month to date cooling degree days 0  
Moisture  
Dew Point 34 °F    
Average Humidity 78    
Maximum Humidity 96    
Minimum Humidity 60    
Precipitation  
Precipitation 0.00 in - 2.12 in (1949)
Month to date precipitation 3.34  
Sea Level Pressure  
Sea Level Pressure 30.42 in    
Wind  
Wind Speed 2 mph (SSE)    
Max Wind Speed 12 mph    
Max Gust Speed 14 mph    
Visibility 8 miles    
Events      
T = Trace of Precipitation, MM = Missing Value Source: NWS Daily Summary

Daily Weather History Graph

Daily Weather History Graph

Search for Another Location

Airport or City:

Trip Planner

Search our weather history database for the weather conditions in past years. The results will help you decide how hot, cold, wet, or windy it might be!

Date:

Astronomy

Dec. 12, 2011 Rise Set
Actual Time 6:52 AM CST 4:34 PM CST
Civil Twilight 6:23 AM CST 5:03 PM CST
Nautical Twilight 5:51 AM CST 5:35 PM CST
Astronomical Twilight 5:19 AM CST 6:06 PM CST
Moon 6:43 PM CST (12/12) 8:24 AM CST (12/12)
Length of Visible Light 10h 39m
Length of Day
9h 41m
Waning Gibbous, 95% of the Moon is Illuminated
Dec 12
Waning Gibbous
Dec 17
Last Quarter
Dec 24
New
Jan 1
First Quarter
Jan 9
Full

Hourly Weather History & Observations

Time (CST) Temp. Windchill Dew Point Humidity Pressure Visibility Wind Dir Wind Speed Gust Speed Precip Events Conditions
12:52 AM 27.0 °F - 24.1 °F 89% 30.41 in 10.0 mi Calm Calm - N/A   Clear
1:52 AM 26.1 °F - 23.0 °F 88% 30.42 in 9.0 mi Calm Calm - N/A   Clear
2:52 AM 26.1 °F - 21.9 °F 84% 30.42 in 10.0 mi Calm Calm - N/A   Clear
3:52 AM 24.1 °F - 21.9 °F 91% 30.42 in 7.0 mi Calm Calm - N/A   Clear
4:52 AM 24.1 °F - 21.9 °F 91% 30.43 in 7.0 mi Calm Calm - N/A   Clear
5:52 AM 23.0 °F - 21.9 °F 96% 30.43 in 6.0 mi Calm Calm - N/A   Clear
6:52 AM 23.0 °F - 21.0 °F 92% 30.45 in 7.0 mi Calm Calm - N/A   Clear
8:52 AM 32.0 °F - 28.9 °F 88% 30.45 in 7.0 mi Calm Calm - N/A   Partly Cloudy
9:52 AM 37.0 °F - 30.0 °F 76% 30.46 in 10.0 mi Calm Calm - N/A   Clear
10:52 AM 46.0 °F 43.9 °F 33.1 °F 61% 30.45 in 10.0 mi SSE 4.6 mph - N/A   Clear
11:35 AM 48.2 °F - 33.8 °F 58% 30.42 in 10.0 mi Calm Calm - N/A   Mostly Cloudy
11:52 AM 48.0 °F - 35.1 °F 61% 30.43 in 10.0 mi SSE 4.6 mph - N/A   Overcast
12:52 PM 48.0 °F - 35.1 °F 61% 30.41 in 10.0 mi SSE 4.6 mph - N/A   Overcast
1:52 PM 46.9 °F - 36.0 °F 66% 30.40 in 10.0 mi SSE 3.5 mph - N/A   Overcast
2:52 PM 46.9 °F - 37.0 °F 68% 30.40 in 10.0 mi ESE 3.5 mph - N/A   Overcast
3:52 PM 46.9 °F - 37.9 °F 71% 30.42 in 10.0 mi SSE 3.5 mph - N/A   Overcast
4:52 PM 45.0 °F 40.6 °F 39.0 °F 80% 30.42 in 10.0 mi SE 8.1 mph - N/A   Overcast
5:10 PM 44.6 °F 40.2 °F 37.4 °F 76% 30.40 in 10.0 mi SE 8.1 mph - N/A   Overcast
5:52 PM 44.1 °F 40.8 °F 37.9 °F 79% 30.42 in 10.0 mi SSE 5.8 mph - N/A   Mostly Cloudy
6:26 PM 42.8 °F 41.1 °F 39.2 °F 87% 30.41 in 9.0 mi SSE 3.5 mph - N/A   Mostly Cloudy
6:52 PM 41.0 °F 38.0 °F 37.9 °F 89% 30.43 in 8.0 mi SSE 4.6 mph - N/A   Overcast
7:08 PM 42.8 °F 41.1 °F 39.2 °F 87% 30.41 in 7.0 mi SSE 3.5 mph - N/A   Overcast
7:52 PM 43.0 °F 38.8 °F 41.0 °F 93% 30.43 in 6.0 mi SSE 6.9 mph - N/A   Overcast
8:06 PM 42.8 °F 40.1 °F 41.0 °F 93% 30.41 in 5.0 mi SSE 4.6 mph - N/A   Overcast
8:43 PM 42.8 °F 41.1 °F 41.0 °F 93% 30.41 in 5.0 mi SSE 3.5 mph - N/A   Overcast
8:52 PM 42.1 °F 40.2 °F 39.9 °F 92% 30.43 in 4.0 mi SSE 3.5 mph - N/A   Overcast
9:01 PM 41.0 °F 39.0 °F 39.2 °F 93% 30.41 in 4.0 mi SE 3.5 mph - N/A   Mostly Cloudy
9:52 PM 42.1 °F - 39.9 °F 92% 30.44 in 4.0 mi Calm Calm - N/A   Overcast
10:52 PM 43.0 °F - 41.0 °F 93% 30.44 in 5.0 mi Calm Calm - N/A   Overcast